Tracking 18850 objects as of 22-Nov-2017
HD Live streaming from Space Station
objects crossing your sky now

NNSS 19 (TRANSIT 19)

Track NNSS 19 (TRANSIT 19) now!
10-day predictions
NNSS 19 (TRANSIT 19) is classified as:


NORAD ID: 4507
Int'l Code: 1970-067A
Perigee: 949.0 km
Apogee: 1,204.9 km
Inclination: 89.8 °
Period: 106.6 minutes
Semi major axis: 7447 km
RCS: 1.5637 m2 (large)
Launch date: August 27, 1970
Source: United States (US)
Launch site: AIR FORCE WESTERN TEST RANGE (AFWTR)
aabbcc
Your satellite tracking list
Your tracking list is empty




NASA's NSSDC Master Catalog

Two Line Element Set (TLE):
1 04507U 70067A   17325.88279718  .00000032  00000-0  30297-4 0  9994
2 04507  89.8422 260.1376 0171807 173.4738 186.8710 13.50665043325300
Source of the keplerian elements: AFSPC